KUIPER-00225

Last updated on Sun Mar 15 2026 00:02:06 GMT+0000 (Coordinated Universal Time)

1 67784U 26030W 26073.50901736 .00062812 00000+0 17500-2 0 9995 2 67784 51.8805 195.8716 0004732 53.6062 306.5361 15.36184139 5837
UTC large
Height (km)
Speed (km/s)
/
Latitude / Longitude
Inclination (degrees)
Orbital Period (minutes)
Azimuth
Elevation
Range (km)
Doppler Factor

Next 0 passes for location: London (51.5072 / 0.1276)

Sorry there are no passes over London.